Coffeyville, KS

5:30 AM CDT on October 22, 2017 (GMT -0500)
Coffeyville Municipal

Weather History for KCFV - May, 2014

Change the Weather History Date:

Monday, May 12, 2014

  Actual Average Record
Temperature  
Mean Temperature 66 °F -  
Max Temperature 78 °F 75 °F 88 °F (2007)
Min Temperature 53 °F 53 °F 41 °F (2013)
Cooling Degree Days 2    
Growing Degree Days 16 (Base 50)    
Moisture  
Dew Point 59 °F    
Average Humidity 82    
Maximum Humidity 94    
Minimum Humidity 71    
Precipitation  
Precipitation 0.00 in - - ()
Sea Level Pressure  
Sea Level Pressure 29.85 in    
Wind  
Wind Speed 15 mph (West)    
Max Wind Speed 23 mph    
Max Gust Speed 33 mph    
Visibility 9 miles    
Events Rain , Thunderstorm    
Averages and records for this station are not official NWS values.
T = Trace of Precipitation, MM = Missing Value Source: NWS Daily Summary

Daily Weather History Graph

Daily Weather History Graph

Search for Another Location

Airport or City:

Trip Planner

Search our weather history database for the weather conditions in past years. The results will help you decide how hot, cold, wet, or windy it might be!

Date:

Astronomy

May. 12, 2014 Rise Set
Actual Time 6:16 AM CDT 8:21 PM CDT
Civil Twilight 5:47 AM CDT 8:50 PM CDT
Nautical Twilight 5:12 AM CDT 9:25 PM CDT
Astronomical Twilight 4:34 AM CDT 10:03 PM CDT
Moon 6:23 PM CDT (5/12) 4:52 AM CDT (5/12)
Length of Visible Light 15h 02m
Length of Day
14h 04m
Waxing Gibbous, 95% of the Moon is Illuminated
May 12
Waxing Gibbous
May 14
Full
May 21
Last Quarter
May 28
New
Jun 5
First Quarter

Hourly Weather History & Observations

Time (CDT) Temp. Dew Point Humidity Pressure Visibility Wind Dir Wind Speed Gust Speed Precip Events Conditions
12:52 AM 75.9 °F 66.9 °F 74% 29.67 in 10.0 mi SSE 15.0 mph - N/A   Clear
1:52 AM 75.9 °F 66.9 °F 74% 29.66 in 10.0 mi SSE 15.0 mph 26.5 mph N/A   Clear
2:52 AM 78.1 °F 68.0 °F 71% 29.66 in 10.0 mi South 18.4 mph 27.6 mph N/A   Mostly Cloudy
3:27 AM 75.9 °F 68.0 °F 76% 29.68 in 10.0 mi South 23.0 mph 31.1 mph N/A   Mostly Cloudy
3:35 AM 75.9 °F 68.0 °F 76% 29.68 in 10.0 mi South 19.6 mph 33.4 mph N/A   Scattered Clouds
3:52 AM 75.9 °F 68.0 °F 76% 29.66 in 10.0 mi South 20.7 mph 26.5 mph N/A   Partly Cloudy
4:09 AM 75.9 °F 68.0 °F 76% 29.74 in 10.0 mi SSW 18.4 mph 25.3 mph N/A   Mostly Cloudy
4:44 AM 75.9 °F 68.0 °F 76% 29.76 in 10.0 mi SSW 13.8 mph 25.3 mph N/A   Overcast
4:52 AM 75.9 °F 68.0 °F 76% 29.74 in 10.0 mi SSW 15.0 mph 25.3 mph N/A   Overcast
5:52 AM 73.9 °F 68.0 °F 82% 29.73 in 10.0 mi South 13.8 mph 23.0 mph N/A   Partly Cloudy
6:52 AM 73.9 °F 66.9 °F 79% 29.74 in 10.0 mi South 15.0 mph - N/A   Clear
7:52 AM 75.9 °F 66.9 °F 74% 29.75 in 10.0 mi South 19.6 mph 28.8 mph N/A   Partly Cloudy
9:52 AM 77.0 °F 66.9 °F 71% 29.77 in 10.0 mi South 17.3 mph 28.8 mph 0.00 in   Overcast
10:52 AM 77.0 °F 68.0 °F 74% 29.78 in 9.0 mi South 18.4 mph - N/A   Overcast
11:05 AM 77.0 °F 68.0 °F 74% 29.81 in 9.0 mi SSW 13.8 mph - N/A   Overcast
11:44 AM 72.0 °F 69.1 °F 91% 29.82 in 7.0 mi West 16.1 mph - 0.00 in Rain Light Rain
11:52 AM 72.0 °F 69.1 °F 91% 29.81 in 9.0 mi WSW 13.8 mph - 0.00 in   Overcast
12:04 PM 70.0 °F 66.0 °F 87% 29.84 in 10.0 mi West 10.4 mph - N/A Thunderstorm Overcast
12:17 PM 68.0 °F 64.0 °F 87% 29.84 in 10.0 mi West 12.7 mph - N/A Thunderstorm Overcast
12:38 PM 66.9 °F 63.0 °F 87% 29.84 in 10.0 mi West 13.8 mph - N/A Thunderstorm Overcast
12:52 PM 66.9 °F 62.1 °F 84% 29.83 in 10.0 mi WNW 10.4 mph - N/A   Overcast
1:01 PM 66.9 °F 62.1 °F 84% 29.85 in 10.0 mi West 12.7 mph - N/A Thunderstorm Overcast
1:52 PM 63.0 °F 57.9 °F 84% 29.87 in 10.0 mi WNW 12.7 mph - 0.00 in Thunderstorm Overcast
2:01 PM 62.1 °F 57.9 °F 86% 29.88 in 10.0 mi WNW 12.7 mph - N/A   Overcast
2:23 PM 60.1 °F 57.0 °F 90% 29.88 in 10.0 mi WNW 15.0 mph - 0.00 in Thunderstorm Overcast
2:48 PM 59.0 °F 57.2 °F 94% 29.89 in 7.0 mi NW 10.4 mph - 0.00 in Rain , Thunderstorm Light Rain
2:52 PM 59.0 °F 57.0 °F 93% 29.88 in 7.0 mi NW 10.4 mph - 0.00 in Rain , Thunderstorm Light Rain
3:02 PM 59.0 °F 55.9 °F 90% 29.87 in 10.0 mi NW 11.5 mph - 0.00 in Rain Light Rain
3:13 PM 59.0 °F 55.9 °F 90% 29.87 in 10.0 mi NNW 10.4 mph - 0.00 in   Overcast
3:34 PM 59.0 °F 55.9 °F 90% 29.90 in 10.0 mi WNW 13.8 mph - 0.00 in Rain , Thunderstorm Light Thunderstorms and Rain
3:52 PM 57.9 °F 55.0 °F 90% 29.88 in 2.5 mi NW 15.0 mph 19.6 mph N/A Rain , Thunderstorm Thunderstorms and Rain
3:56 PM 57.9 °F 55.0 °F 90% 29.87 in 5.0 mi NNW 12.7 mph - N/A Rain , Thunderstorm Light Thunderstorms and Rain
4:13 PM 59.0 °F 55.0 °F 87% 29.88 in 10.0 mi North 9.2 mph - N/A   Overcast
4:52 PM 57.9 °F 55.0 °F 90% 29.89 in 10.0 mi NW 6.9 mph - N/A   Overcast
5:15 PM 59.0 °F 54.0 °F 83% 29.90 in 10.0 mi NW 11.5 mph - N/A   Overcast
5:22 PM 59.0 °F 55.0 °F 87% 29.90 in 10.0 mi NW 9.2 mph - N/A   Overcast
5:52 PM 57.9 °F 53.1 °F 84% 29.91 in 10.0 mi NNW 11.5 mph - N/A   Overcast
6:48 PM 55.4 °F 51.8 °F 88% 29.95 in 6.0 mi NW 8.1 mph - N/A Rain Light Rain
6:52 PM 55.9 °F 52.0 °F 87% 29.94 in 10.0 mi NW 11.5 mph - N/A Rain Light Rain
7:26 PM 57.0 °F 52.0 °F 83% 29.96 in 10.0 mi NNW 5.8 mph - N/A   Overcast
7:52 PM 55.9 °F 51.1 °F 84% 29.96 in 10.0 mi NW 9.2 mph - N/A   Overcast
8:10 PM 55.9 °F 51.1 °F 84% 29.99 in 10.0 mi NW 9.2 mph - N/A   Overcast
8:52 PM 55.9 °F 50.0 °F 80% 29.99 in 10.0 mi NW 11.5 mph - N/A   Overcast
9:02 PM 55.9 °F 50.0 °F 80% 30.01 in 10.0 mi NW 11.5 mph - N/A   Overcast
9:52 PM 55.0 °F 48.0 °F 77% 29.98 in 10.0 mi NNW 15.0 mph - N/A   Overcast
10:01 PM 55.0 °F 46.9 °F 74% 29.99 in 10.0 mi NNW 13.8 mph - N/A   Overcast
10:52 PM 55.0 °F 46.9 °F 74% 30.03 in 10.0 mi NNW 13.8 mph - N/A   Overcast
11:52 PM 53.1 °F 45.0 °F 74% 30.09 in 10.0 mi NW 17.3 mph 25.3 mph N/A   Overcast